Regional Weather Roundup
Issued by NWS Bismarck, ND

Home | Current Version | Previous Version | Text Only | Print | Product List | Glossary On
Versions: 1 2 3 4 5 6 7 8 9 10 11 12 13 14 15 16 17 18 19 20 21 22 23 24 25 26 27 28 29 30 31 32 33 34 35 36 37 38 39 40 41 42 43 44 45 46 47 48 49 50
000
ASUS43 KBIS 201520
RWRBIS

NWR BROADCAST TEXT
NATIONAL WEATHER SERVICE BISMARCK ND
1000 AM CDT MON OCT 20 2014

NOTE: "FAIR" INDICATES FEW OR NO CLOUDS BELOW 12,000 FEET WITH NO
SIGNIFICANT WEATHER AND/OR OBSTRUCTIONS TO VISIBILITY.


CITY           SKY/WX    TMP DP  RH WIND       PRES   REMARKS
WILLISTON      SUNNY     50  40  68 CALM      29.96S
MINOT          SUNNY     48  38  68 SE5       30.01S
MINOT AFB      SUNNY     47  41  81 SE6       30.00S
BISMARCK       SUNNY     42  37  82 CALM      30.08S
DICKINSON      SUNNY     53  41  63 S10       29.99S
GARRISON         N/A     46  42  86 SE3       30.03S
HETTINGER ARPT SUNNY     50  39  66 SE9       30.04S
JAMESTOWN      SUNNY     46  40  79 CALM      30.07S
BEACH            N/A     50  39  66 S14G21    29.97S
CARRINGTON     FAIR      50  39  66 CALM      30.07S
CROSBY         FAIR      48  41  76 S12       29.94F
HARVEY         FAIR      46  39  76 S3        30.05S
HAZEN          FAIR      39  36  87 NE3       30.05S
LINTON         FAIR      45  41  87 E6        30.08F
MANDAN         FAIR      46  39  76 S6        30.07S
OAKES            N/A     48  41  76 CALM      30.09R
RUGBY          FAIR      46  41  81 SE8       30.04S
STANLEY        FAIR      48  45  87 S7        29.99F
TIOGA          FAIR      50  45  81 SE6       30.00F
$$

CITY           SKY/WX    TMP DP  RH WIND       PRES   REMARKS
GRAND FORKS    SUNNY     44  40  85 N6        30.07R
GRAND FORKS AF SUNNY     44  44  98 N5        30.08R
DEVILS LAKE    SUNNY     46  37  71 SE5       30.06R
FARGO          SUNNY     45  38  76 N6        30.07R
CANDO          FAIR      43  39  87 CALM      30.07S
CAVALIER       FAIR      41  39  93 N6        30.09S
GRAFTON        FAIR      43  41  93 N7        30.09R
GWINNER        SUNNY     52  39  62 N5        30.10R
LANGDON        FAIR      41  39  93 SE3       30.07R
ROLLA          FAIR      46  41  81 S8        30.06S
WALHALLA         N/A     39  39 100 CALM      30.09S
$$

CITY           SKY/WX    TMP DP  RH WIND       PRES   REMARKS
ABERDEEN       SUNNY     46  38  73 SE3       30.10R
MOBRIDGE       SUNNY     48  43  82 S5        30.07R
BUFFALO          N/A     51  38  60 S8        29.95S
RAPID CITY     SUNNY     49  41  74 SE8       30.05R
GLASGOW        SUNNY     48  38  68 E12       29.87R
SIDNEY         SUNNY     46  39  76 CALM      29.96F
WOLF POINT     SUNNY     43  38  82 NE8       29.91S
GLENDIVE       SUNNY     52  39  62 S5        29.95S
MILES CITY     SUNNY     49  38  65 SE8       29.93S
BAKER          SUNNY     51  37  58 SE8       29.98R
$$

CITY           SKY/WX    TMP DP  RH WIND       PRES   REMARKS
BILLINGS       SUNNY     43  31  62 SW14      29.94S
GREAT FALLS    FAIR      59  28  30 S14       29.86S
REGINA         MOSUNNY   45  39  81 SE14      29.86S
ESTEVAN        MOSUNNY   50  41  71 SE5       29.94F
$$



USA.gov is the U.S. government's official web portal to all federal, state and local government web resources and services.